Torna al catalogo

CZ-6A DEB

AttivoSSO
NORAD 55515·DEBRIS·🇨🇳 China

Lanciato Nov 11, 2022 da Taiyuan Satellite Launch Center

Loading…

Prossimi Passaggi (prossime 24 ore)

TLE

AggiornatoSource: Space-Track

Epoca: Sep 14, 2026, 13:37 UTC

1 55515U 22151XM  26257.56797455  .00003692  00000-0  72905-3 0  9998
2 55515  98.5092 298.5438 0131274  35.4251 325.5579 14.57689980197520

Traccia CZ-6A DEB in tempo reale con AllMySat

Download on the App Store